Regional Weather Roundup
Issued by NWS Charleston, SC

Current Version | Previous Version | Graphics & Text | Print | Product List | Glossary On
Versions: 1 2 3 4 5 6 7 8 9 10 11 12 13 14 15 16 17 18 19 20 21 22 23 24 25 26 27 28 29 30 31 32 33 34 35 36 37 38 39 40 41 42 43 44 45 46 47 48 49 50
000
ASUS42 KCHS 212227
RWRCHS

REGIONAL WEATHER ROUNDUP
NATIONAL WEATHER SERVICE CHARLESTON SC
500 PM EST TUE NOV 21 2017

NOTE: "FAIR" INDICATES FEW OR NO CLOUDS BELOW 12,000 FEET WITH NO
SIGNIFICANT WEATHER AND/OR OBSTRUCTIONS TO VISIBILITY.

NOT ALL STATIONS ARE QUALITY CONTROLLED. USE DATA WITH CAUTION...
ESPECIALLY DEWPOINT OBSERVATIONS.

SCZ027-030-031-034>040-042>050-212300-
...SOUTHEAST SOUTH CAROLINA...

CITY           SKY/WX    TMP DP  RH WIND       PRES   REMARKS
N CHARLESTON   CLOUDY    66  58  75 E7        30.03S
WATERFRONT PRK NOT AVBL
JOHNS ISLAND   CLOUDY    66  59  77 N5        30.03S
PINOPOLIS        N/A     64  61  88 E5        29.95F
MONCKS CORNER  FAIR      64  57  77 E3        30.03F
SUMMERVILLE    CLOUDY    64  59  82 CALM      30.04S
BEAUFORT MCAS  CLOUDY    67  61  81 NE8       30.00F
BEAUFORT ARPT  MOCLDY    64  59  82 E8        29.98F HAZE
HILTON HEAD IS CLOUDY    66  61  82 NE8       30.00F
WALTERBORO     CLOUDY    64  59  82 NE3       30.03S
ALLENDALE      CLOUDY    64  59  82 CALM      30.01F

...SOUTHERN MIDLANDS AND PEE DEE...

CITY           SKY/WX    TMP DP  RH WIND       PRES   REMARKS
GEORGETOWN     FAIR      61  61 100 CALM      30.06F
KINGSTREE      MOCLDY    61  55  82 CALM      30.05F
ORANGEBURG     CLOUDY    63  54  72 NE5       30.04S
BARNWELL         N/A     64  57  77 CALM      30.03S
AIKEN          CLOUDY    59  55  88 CALM      30.06F
MANNING        FAIR      61  37  41 MISG      30.05S
COLUMBIA       CLOUDY    63  54  72 SE3       30.05S
SUMTER         PTCLDY    63  52  67 E5        30.03S
FLORENCE       CLOUDY    63  53  70 E3        30.07F
MYRTLE BEACH   CLOUDY    63  58  83 E9        30.08F
N MYRTLE BEACH LGT RAIN  63  59  87 E7        30.07F

$$

GAZ063-065-086>088-099>101-113>116-118-119-134>141-150-212300-
...SOUTHEAST GEORGIA...

CITY           SKY/WX    TMP DP  RH WIND       PRES   REMARKS
SAVANNAH ARPT  CLOUDY    65  64  97 N3        30.00F
HUNTER AAF     CLOUDY    66  62  88 CALM      29.98R
FORT STEWART   CLOUDY    65  62  91 N5        29.98S
STATESBORO     LGT RAIN  63  63 100 N3        30.01F
SYLVANIA       DRIZZLE   64  64 100 CALM      30.04S
CLAXTON        FAIR      65  64  96 CALM      30.01S

...CSRA...CENTRAL AND FAR SOUTHEAST GEORGIA...

CITY           SKY/WX    TMP DP  RH WIND       PRES   REMARKS
THOMSON        CLOUDY    60  55  85 SE3       30.09S
AUGUSTA-BUSH   LGT RAIN  64  56  75 W5        30.04R
AUGUSTA-DANIEL LGT RAIN  62  57  83 NW5       30.05R
SWAINSBORO     FAIR      63  61  94 CALM      30.03S
VIDALIA        CLOUDY    64  61  88 NE5       30.02R
EASTMAN        FAIR      64  51  64 CALM      30.03F
HAZLEHURST     FAIR      66  56  69 NE3       29.99F
ALMA           CLOUDY    68  61  78 CALM      29.99R
WAYCROSS       LGT RAIN  68  63  84 NE3       30.00R
JESUP          MOCLDY    66  63  88 CALM      30.00R
BAXLEY         MOCLDY    64  64 100 CALM      30.00R
BRUNSWICK      MOCLDY    68  63  83 NE5       29.98S
SAINT SIMONS   CLOUDY    68  64  87 NE3       29.97S

$$

SCZ027-028-034-036>038-045-046-048>050-GAZ119-141-212300-
...LAKE AND SUPPLEMENTAL COASTAL OBSERVATIONS...

STATION/POSITION TIME  TEMP    WIND        PRES    WAVE   SWELL
                       AIR SEA DIR/SP/G            HT/PER HT/PER/DIR
                 (UTC) (F)     (DEG/KT/KT) (MB)    (FT/S) (FT/S/D)
WINYAH BAY       2145   62      50/  6     1018.0S
LAKE MURRAY      2130   62      CALM  /  1 1016.9S
ACE BASIN NERRS  2145   66      50/  2     1016.0S
FORT PULASKI     2200   63 61  240/  3/  5 1016.3
SAPELO ISLAND    2200   66      40/  3     1015.0

$$

ANZ835-935-AMZ111-154-330-350-352-354-370-450-454-472-212300-
...C-MAN AND BUOY OBSERVATIONS...

STATION/POSITION TIME  TEMP    WIND        PRES    WAVE   SWELL
                       AIR SEA DIR/SP/G            HT/PER HT/PER/DIR
                 (UTC) (F)     (DEG/KT/KT) (MB)    (FT/S) (FT/S/D)
BUOY 41004       2210   72 74  110/ 12/ 16 1016.3
BUOY 41008       2150   69 67  140/ 10/ 14 1014.6F   5/ 7   3/120/ 7
FOLLY BEACH CMAN 2200   62      50/ 12/ 13 1017.3F
CAPERS NEARSHORE 2208   60 62   60/ 10/ 14 1016.6F
FRIPP NEARSHORE  2208   60 61   50/ 10/ 16 1015.8S


STATION/POSITION TIME  TEMP    WIND        PRES    WAVE   SWELL
                       AIR SEA DIR/SP/G            HT/PER HT/PER/DIR
                 (UTC) (F)     (DEG/KT/KT) (MB)    (FT/S) (FT/S/D)
5E ST. MARYS GA  2200      67                N/A     5/ 7
FRYING PAN BUOY  2210   72 71  140/ 16/ 19 1018.1
BUOY 41025       2210   71 76  160/ 14/ 17 1021.1
CAPE LOOKOUT NC  2200           30/  8/  9 1020.5F
BUOY 41002       2150   74 76  120/ 17/ 21 1018.9S   6/ 6   2/190/11
BUOY 41010       NOT AVBL
ST AUGUSTINE FL  2200   69 69  160/ 20/ 22 1014.2F


$$




USA.gov is the U.S. government's official web portal to all federal, state and local government web resources and services.